Aérodrome :
LOGIN :

S'inscrire | Disclaimer

   EN    FR    IT 

 










Légende :    VFR   VFR Marginal   IFR   IFR Intensif   IFR Très Intensif
Visi : 
Plafond : 
>= 8 km
>= 3000ft
5 à 8 km
1000 à 3000 ft
1500m à 5 km
500 à 1000 ft
800 à 1500m
200 à 500 ft
< 800m
< 200 ft
Symboles :   Orages  Brouillard  Fortes neiges  Fortes précipitations  Vent > 20 kt
SIGMETs :   Divers  Orages  Givrage  Turbulence  Onde Orograph.  Cendres Volcan.






- Altitude de l'aérodrome : 218 ft
- Code IATA : LBG


LFPB - Paris / Le Bourget

DERNIER METAR :
  • 160800Z AUTO 01006KT 340V060 CAVOK 06/M00 Q1027 NOSIG

METARs EXPIRÉS :
  • 160730Z AUTO 02007KT CAVOK 05/M00 Q1027 NOSIG
  • 160700Z AUTO 36006KT 330V030 CAVOK 04/M00 Q1027 NOSIG
  • 160630Z AUTO 35003KT 310V030 CAVOK 03/M00 Q1028 NOSIG
  • 160600Z AUTO 35005KT 320V020 CAVOK 02/M01 Q1027 NOSIG
  • 160530Z AUTO 35005KT CAVOK 02/M01 Q1027 NOSIG

TAF TAF LFPB
Valide du 16 à 06h jusqu'au 17 à 06h UTC


160500Z 1606/1706 02008KT CAVOK
TEMPO 1612/1617 02015G25KT
ATIS : +33 1 48 62 43 92



MET'MAP, la Météo Aéronautique d'un coup d'oeil ! - Copyright ORBIFLY Décembre 2007 - Disclaimer

ORBIFLY MET'MAP TEAM :

Programmation & Développement : Alexandra Zaïnal
Sur une idée originale de : Baudouin d'Aumeries
Assistance à la programmation : Marc-Olivier Méhu
Soutien technique & logistique : Manuel Goepfert

Contact : metmap@orbifly.com




SOURCES & CREDITS :

   NOAA